Location: Unspecified
(0.0000°N, 0.0000°E)
Time: 22:33:42
(UTC+01:00)

SJ-6B - Visible Passes

Search period start: 30 January 2015 00:00
Search period end: 09 February 2015 00:00
Orbit: 517 x 594 km, 97.8° (Epoch: 30 January)

Date Brightness Start Highest point End Pass type
(mag) Time Alt. Az. Time Alt. Az. Time Alt. Az.
30 Jan 5.9 06:25:10 10° ENE 06:27:46 19° E 06:30:30 10° SSE visible
30 Jan 6.3 19:58:41 10° SW 20:01:14 15° W 20:03:33 10° WNW visible
31 Jan 6.0 06:22:45 10° ENE 06:25:09 17° E 06:27:42 10° SE visible
31 Jan 6.3 19:55:52 10° SW 19:58:37 16° W 20:01:10 10° WNW visible
01 Feb 6.1 06:20:21 10° ENE 06:22:31 15° E 06:24:52 10° SE visible
01 Feb 6.2 19:53:03 10° SW 19:56:00 18° W 19:58:46 10° WNW visible
02 Feb 6.2 06:17:58 10° ENE 06:19:53 14° E 06:21:59 10° SE visible
02 Feb 6.1 19:50:15 10° SSW 19:53:23 20° W 19:56:20 10° NW visible
03 Feb 6.3 06:15:39 10° ENE 06:17:14 13° E 06:19:02 10° SE visible
03 Feb 6.0 19:47:28 10° SSW 19:50:45 21° W 19:53:52 10° NW visible
04 Feb 6.4 06:13:26 10° E 06:14:35 11° E 06:16:00 10° ESE visible
04 Feb 5.8 19:44:42 10° SSW 19:48:06 23° W 19:51:23 10° NW visible
05 Feb 6.7 06:11:27 10° E 06:11:55 10° E 06:12:41 10° ESE visible
05 Feb 5.7 19:41:56 10° SSW 19:45:28 25° W 19:48:51 10° NW visible
06 Feb 5.5 19:39:11 10° SSW 19:42:48 28° W 19:46:19 10° NW visible
07 Feb 5.3 19:36:26 10° SSW 19:40:09 30° W 19:43:46 10° NW visible
08 Feb 5.1 19:33:41 10° SSW 19:37:29 33° W 19:41:11 10° NW visible
